• In Hungary
  • List of Countries
  • For 7 days
  • Water Temperature
  • Satellite Maps
  • Weather Map
  • News
  • Weather Widgets
  • user-avatar
    Login

    Hourly Weather Tarija

    Today, 15 August, Wednesday

    Time Temperature Precipitation Wind Pressure Humidity
    00:00 +10°C° 0 mm 1 mps 598 mmHg 87%
    01:00 +10°C° 0 mm 1 mps 598 mmHg 88%
    02:00 +9°C° 0 mm 1 mps 598 mmHg 90%
    03:00 +9°C° 0 mm 1 mps 598 mmHg 89%
    04:00 +9°C° 0 mm 1 mps 598 mmHg 88%
    05:00 +9°C° 0 mm 1 mps 598 mmHg 87%
    06:00 +10°C° 0 mm 1 mps 598 mmHg 83%
    07:00 +10°C° 0 mm 1 mps 599 mmHg 79%
    08:00 +11°C° 0 mm 1 mps 600 mmHg 76%
    09:00 +13°C° 0 mm 1 mps 600 mmHg 68%
    10:00 +14°C° 0 mm 1 mps 601 mmHg 60%
    11:00 +16°C° 0 mm 1 mps 601 mmHg 53%
    12:00 +17°C° 0 mm 2 mps 601 mmHg 49%
    13:00 +18°C° 0 mm 2 mps 601 mmHg 46%
    14:00 +19°C° 0 mm 3 mps 601 mmHg 43%
    15:00 +18°C° 0 mm 3 mps 600 mmHg 46%
    16:00 +18°C° 0 mm 3 mps 599 mmHg 49%
    17:00 +17°C° 0 mm 3 mps 599 mmHg 52%
    18:00 +15°C° 0 mm 2 mps 599 mmHg 58%
    19:00 +13°C° 0 mm 2 mps 598 mmHg 64%
    20:00 +12°C° 0 mm 1 mps 598 mmHg 71%
    21:00 +11°C° 0 mm 1 mps 598 mmHg 71%
    22:00 +11°C° 0 mm 1 mps 599 mmHg 72%
    23:00 +11°C° 0 mm 1 mps 599 mmHg 73%

    Tomorrow, 16 August, Thursday

    Time Temperature Precipitation Wind Pressure Humidity
    00:00 +11°C° 0 mm 1 mps 599 mmHg 75%
    01:00 +10°C° 0 mm 1 mps 598 mmHg 76%
    02:00 +10°C° 0 mm 1 mps 598 mmHg 78%
    03:00 +10°C° 0 mm 1 mps 598 mmHg 78%
    04:00 +10°C° 0 mm 1 mps 598 mmHg 79%
    05:00 +9°C° 0 mm 1 mps 598 mmHg 80%
    06:00 +11°C° 0 mm 1 mps 598 mmHg 74%
    07:00 +12°C° 0 mm 1 mps 599 mmHg 68%
    08:00 +13°C° 0 mm 1 mps 600 mmHg 63%
    09:00 +15°C° 0 mm 1 mps 601 mmHg 54%
    10:00 +18°C° 0 mm 1 mps 601 mmHg 46%
    11:00 +20°C° 0 mm 1 mps 602 mmHg 38%
    12:00 +20°C° 0 mm 2 mps 602 mmHg 36%
    13:00 +21°C° 0 mm 3 mps 601 mmHg 34%
    14:00 +22°C° 0 mm 3 mps 601 mmHg 32%
    15:00 +21°C° 0 mm 3 mps 600 mmHg 35%
    16:00 +20°C° 0 mm 4 mps 600 mmHg 39%
    17:00 +19°C° 0 mm 4 mps 599 mmHg 42%
    18:00 +17°C° 0 mm 3 mps 599 mmHg 50%
    19:00 +15°C° 0 mm 2 mps 599 mmHg 57%
    20:00 +13°C° 0 mm 2 mps 599 mmHg 65%
    21:00 +13°C° 0 mm 1 mps 599 mmHg 67%
    22:00 +12°C° 0 mm 1 mps 599 mmHg 70%
    23:00 +12°C° 0 mm 1 mps 599 mmHg 73%

    Day after tomorrow, 17 August, Friday

    Time Temperature Precipitation Wind Pressure Humidity
    00:00 +12°C° 0 mm 1 mps 599 mmHg 74%
    01:00 +12°C° 0 mm 1 mps 598 mmHg 76%
    02:00 +10°C° 0 mm 2 mps 598 mmHg 77%
    03:00 +10°C° 0 mm 2 mps 598 mmHg 77%
    04:00 +10°C° 0 mm 2 mps 597 mmHg 77%
    05:00 +10°C° 0 mm 2 mps 597 mmHg 78%
    06:00 +12°C° 0 mm 2 mps 598 mmHg 72%
    07:00 +13°C° 0 mm 2 mps 599 mmHg 67%
    08:00 +14°C° 0 mm 2 mps 599 mmHg 61%
    09:00 +17°C° 0 mm 2 mps 600 mmHg 51%
    10:00 +19°C° 0 mm 2 mps 601 mmHg 41%
    11:00 +22°C° 0 mm 1 mps 602 mmHg 30%
    12:00 +23°C° 0 mm 2 mps 601 mmHg 29%
    13:00 +24°C° 0 mm 2 mps 601 mmHg 28%
    14:00 +25°C° 0 mm 3 mps 600 mmHg 26%
    15:00 +24°C° 0 mm 3 mps 600 mmHg 31%
    16:00 +22°C° 0 mm 3 mps 599 mmHg 36%
    17:00 +22°C° 0 mm 4 mps 598 mmHg 41%
    18:00 +20°C° 0 mm 3 mps 598 mmHg 51%
    19:00 +18°C° 0 mm 2 mps 598 mmHg 62%
    20:00 +16°C° 0 mm 2 mps 598 mmHg 72%
    21:00 +15°C° 0 mm 2 mps 598 mmHg 74%
    22:00 +15°C° 0 mm 2 mps 598 mmHg 76%
    23:00 +15°C° 0 mm 2 mps 598 mmHg 78%

    18 August, Saturday

    Time Temperature Precipitation Wind Pressure Humidity
    00:00 +15°C° 0 mm 2 mps 597 mmHg 79%
    01:00 +14°C° 0 mm 2 mps 597 mmHg 79%
    02:00 +14°C° 0 mm 2 mps 596 mmHg 80%
    03:00 +14°C° 0 mm 2 mps 596 mmHg 78%
    04:00 +13°C° 0 mm 2 mps 596 mmHg 77%
    05:00 +12°C° 0 mm 3 mps 595 mmHg 75%
    06:00 +13°C° 0 mm 3 mps 596 mmHg 68%
    07:00 +14°C° 0 mm 3 mps 597 mmHg 61%
    08:00 +16°C° 0 mm 3 mps 597 mmHg 55%
    09:00 +19°C° 0 mm 2 mps 598 mmHg 43%
    10:00 +21°C° 0 mm 2 mps 599 mmHg 32%
    11:00 +25°C° 0 mm 1 mps 599 mmHg 21%
    12:00 +26°C° 0 mm 2 mps 599 mmHg 20%
    13:00 +27°C° 0 mm 2 mps 598 mmHg 18%
    14:00 +28°C° 0 mm 2 mps 598 mmHg 17%
    15:00 +27°C° 0 mm 3 mps 598 mmHg 23%
    16:00 +26°C° 0 mm 4 mps 597 mmHg 28%
    17:00 +26°C° 0 mm 5 mps 597 mmHg 33%
    18:00 +22°C° 0.6 mm 4 mps 597 mmHg 45%
    19:00 +20°C° 0.6 mm 3 mps 597 mmHg 57%
    20:00 +18°C° 0.6 mm 3 mps 597 mmHg 69%
    21:00 +18°C° 0 mm 2 mps 597 mmHg 72%
    22:00 +17°C° 0 mm 2 mps 598 mmHg 74%
    23:00 +17°C° 0 mm 2 mps 598 mmHg 76%

    19 August, Sunday

    Time Temperature Precipitation Wind Pressure Humidity
    00:00 +17°C° 0 mm 2 mps 598 mmHg 79%
    01:00 +16°C° 0 mm 1 mps 597 mmHg 83%
    02:00 +16°C° 0 mm 1 mps 597 mmHg 86%
    03:00 +15°C° 0.1 mm 1 mps 597 mmHg 87%
    04:00 +15°C° 0.1 mm 1 mps 597 mmHg 89%
    05:00 +15°C° 0.1 mm 1 mps 597 mmHg 91%
    06:00 +15°C° 0.1 mm 1 mps 598 mmHg 90%
    07:00 +15°C° 0.1 mm 1 mps 599 mmHg 89%
    08:00 +16°C° 0.1 mm 2 mps 599 mmHg 88%
    09:00 +16°C° 0.1 mm 2 mps 600 mmHg 85%
    10:00 +16°C° 0.1 mm 2 mps 600 mmHg 83%
    11:00 +17°C° 0.1 mm 3 mps 600 mmHg 80%
    12:00 +16°C° 0.2 mm 3 mps 599 mmHg 82%
    13:00 +16°C° 0.2 mm 3 mps 599 mmHg 84%
    14:00 +14°C° 0.2 mm 3 mps 598 mmHg 85%
    15:00 +13°C° 0.2 mm 3 mps 598 mmHg 87%
    16:00 +12°C° 0.2 mm 3 mps 598 mmHg 89%
    17:00 +11°C° 0.2 mm 3 mps 597 mmHg 91%
    18:00 +10°C° 0.2 mm 3 mps 598 mmHg 91%
    19:00 +10°C° 0.2 mm 3 mps 598 mmHg 92%
    20:00 +9°C° 0.2 mm 3 mps 599 mmHg 93%
    21:00 +9°C° 0.1 mm 3 mps 599 mmHg 92%
    22:00 +8°C° 0.1 mm 2 mps 599 mmHg 92%
    23:00 +8°C° 0.1 mm 2 mps 600 mmHg 91%

    20 August, Monday

    Time Temperature Precipitation Wind Pressure Humidity
    00:00 +7°C° 0.1 mm 2 mps 599 mmHg 91%
    01:00 +7°C° 0.1 mm 2 mps 599 mmHg 91%
    02:00 +6°C° 0.1 mm 2 mps 599 mmHg 91%
    03:00 +6°C° 0 mm 2 mps 598 mmHg 90%
    04:00 +6°C° 0 mm 2 mps 598 mmHg 89%
    05:00 +6°C° 0 mm 1 mps 598 mmHg 87%
    06:00 +7°C° 0 mm 1 mps 599 mmHg 85%
    07:00 +7°C° 0 mm 1 mps 599 mmHg 83%
    08:00 +7°C° 0 mm 1 mps 600 mmHg 81%
    09:00 +8°C° 0 mm 2 mps 600 mmHg 72%
    10:00 +10°C° 0 mm 2 mps 601 mmHg 64%
    11:00 +13°C° 0 mm 3 mps 601 mmHg 55%
    12:00 +13°C° 0 mm 3 mps 601 mmHg 52%
    13:00 +14°C° 0 mm 3 mps 600 mmHg 48%
    14:00 +15°C° 0 mm 4 mps 599 mmHg 44%
    15:00 +14°C° 0 mm 4 mps 599 mmHg 44%
    16:00 +14°C° 0 mm 4 mps 598 mmHg 45%
    17:00 +13°C° 0 mm 4 mps 598 mmHg 46%
    18:00 +11°C° 0 mm 3 mps 597 mmHg 49%
    19:00 +9°C° 0 mm 2 mps 597 mmHg 52%
    20:00 +8°C° 0 mm 2 mps 597 mmHg 56%
    21:00 +8°C° 0 mm 2 mps 597 mmHg 57%
    22:00 +7°C° 0 mm 2 mps 597 mmHg 58%
    23:00 +7°C° 0 mm 2 mps 598 mmHg 59%
    Show more